Погода в Лачине

Азербайджан     39°38′27″N   46°32′54″E
темп.,
°C
ветер,
м/с
пор.,
м/с
влажн.,
%
обл.,
%
осадки,
мм/ч
давл.,
гПа
погр.,
м
5 марта, пт
пт501:00−2вюв1192100 0.3 1022146
04:00−2в1195100 0.7 1021152
07:00−3вюв2296100 1.4 1020151
10:00−2всв2287100 2.1 1019323
13:000юв2285100 0.3 1018393
16:000юв2290100 0.4 1017231
19:00−1ююз019386 0.0 101923
22:00−1з118350 0.0 102222
6 марта, сб
сб601:00−1зсз22610 0.0 102322
04:00−1зсз22480 0.0 102322
07:00−1зсз11420 0.0 102422
10:00+4ююз11310 0.0 1024251
13:00+7ююв22280 0.0 1021727
16:00+8ююв33360 0.0 1018724
19:00+3ююз22620 0.0 101926
22:00+1зсз33370 0.0 101926
7 марта, вс
вс701:00+1сз33369 0.0 101727
04:00+1зсз233846 0.0 101526
07:00+1зсз2239100 0.0 101525
10:00+5зюз2331100 0.0 1015322
13:00+8зюз23282 0.0 10131991
16:00+7в124228 0.1 10131682
19:00+1всв2283100 0.8 1015316
22:000в228997 1.2 1018147
8 марта, пн
пн801:00−1вюв3397100 1.4 1020218
04:00−3всв2397100 4.4 1020214
07:00−4всв1196100 1.3 1020108
10:00−3вюв2292100 1.9 1020313
13:00−3ююв3393100 0.4 1018351
16:00−3юв339299 0.9 1014335
19:00−4св1294100 0.4 1014163
22:00−4юв1197100 3.5 101674
9 марта, вт
вт901:00−4ююз1197100 0.1 101675
04:00−6зсз118270 0.1 101621
07:00−6з11760 0.0 101721
10:00−1юв10680 0.0 1017251
13:00+1вюв21740 0.0 1016632
16:00+2ююв338036 0.1 1014551
19:00−1ю129246 0.1 101522
22:00−3зсз227239 0.1 101723